This is the latest recevied weather packets stored in our database for station/object KC8JWT. If no packets are shown the sender has not sent any weather packets the latest 1 day(s).
| Time | Temp. | Humidity | Pressure | Rain* | Wind** | Luminosity | Snow |
|---|---|---|---|---|---|---|---|
| 1778024316 | 21.67° C | 60% | 1008.1 hPa | 0 mm | 2.24 m/s, 213° | 20 W/m² | - |
| 1778024014 | 21.67° C | 61% | 1008.3 hPa | 0 mm | 0.89 m/s, 154° | 17 W/m² | - |
| 1778023711 | 21.67° C | 60% | 1008.6 hPa | 0 mm | 0.89 m/s, 158° | 17 W/m² | - |
| 1778023409 | 21.67° C | 59% | 1008.3 hPa | 0 mm | 2.24 m/s, 237° | 20 W/m² | - |
| 1778023105 | 21.67° C | 60% | 1008.1 hPa | 0 mm | 0.45 m/s, 165° | 19 W/m² | - |
| 1778022803 | 22.22° C | 60% | 1008.5 hPa | 0 mm | 0.45 m/s, 160° | 19 W/m² | - |
| 1778022501 | 22.22° C | 59% | 1008.5 hPa | 0 mm | 1.79 m/s, 183° | 25 W/m² | - |
| 1778022198 | 22.22° C | 60% | 1008.4 hPa | 0 mm | 0.89 m/s, 173° | 31 W/m² | - |
| 1778021895 | 22.22° C | 60% | 1008.3 hPa | 0 mm | 0.89 m/s, 169° | 34 W/m² | - |
| 1778021592 | 22.22° C | 58% | 1008.3 hPa | 0 mm | 0.89 m/s, 173° | 46 W/m² | - |
| 1778021287 | 22.78° C | 59% | 1008.3 hPa | 0 mm | 0.45 m/s, 154° | 51 W/m² | - |
| 1778020985 | 22.78° C | 57% | 1008.3 hPa | 0 mm | 1.34 m/s, 178° | 56 W/m² | - |
| 1778020682 | 22.78° C | 58% | 1008.5 hPa | 0 mm | 1.34 m/s, 160° | 65 W/m² | - |
| 1778020379 | 22.78° C | 57% | 1008.2 hPa | 0 mm | 1.34 m/s, 182° | 68 W/m² | - |
| 1778020075 | 22.78° C | 57% | 1008.3 hPa | 0 mm | 0.45 m/s, 166° | 69 W/m² | - |
| 1778019771 | 22.78° C | 58% | 1008.3 hPa | 0 mm | 1.34 m/s, 164° | 74 W/m² | - |
| 1778019468 | 22.78° C | 58% | 1008.4 hPa | 0 mm | 1.34 m/s, 224° | 72 W/m² | - |
| 1778019165 | 22.78° C | 57% | 1008.3 hPa | 0 mm | 2.24 m/s, 173° | 76 W/m² | - |
| 1778018861 | 22.78° C | 57% | 1008.4 hPa | 0 mm | 0.45 m/s, 155° | 95 W/m² | - |
| 1778018559 | 23.33° C | 57% | 1008.8 hPa | 0 mm | 1.79 m/s, 140° | 119 W/m² | - |
| 1778018257 | 23.33° C | 56% | 1008.4 hPa | 0 mm | 2.68 m/s, 240° | 140 W/m² | - |
| 1778017954 | 23.33° C | 56% | 1008.4 hPa | 0 mm | 1.79 m/s, 182° | 163 W/m² | - |
| 1778017652 | 23.33° C | 55% | 1008.4 hPa | 0 mm | 2.68 m/s, 147° | 124 W/m² | - |
| 1778016440 | 23.89° C | 55% | 1008.7 hPa | 0 mm | 1.34 m/s, 198° | 277 W/m² | - |
| 1778016137 | 23.89° C | 55% | 1008.7 hPa | 0 mm | 1.34 m/s, 198° | 277 W/m² | - |
* Rain latest hour (hover to see other rain measurements)
** Current wind speed in m/s (hover to see current wind gust speed)